TimeCST,TemperatureF,Dew PointF,Humidity,Sea Level PressureIn,VisibilityMPH,Wind Direction,Wind SpeedMPH,Gust SpeedMPH,PrecipitationIn,Events,Conditions,WindDirDegrees,DateUTC
12:00 AM,67,56,59,,,ENE,1.2,,,,,70,2013-11-27 13:30:00
12:30 AM,65,58,73,,,West,4.6,,,,,280,2013-11-27 14:00:00
2:30 AM,62,58,81,,,SSW,4.6,,,,,210,2013-11-27 16:00:00
3:00 AM,62,57,79,,,SW,1.2,,,,,230,2013-11-27 16:30:00
3:30 AM,62,55,72,,,WSW,2.3,,,,,240,2013-11-27 17:00:00
5:30 AM,62,53,65,,,SE,10.4,,,,,130,2013-11-27 19:00:00
6:00 AM,62,53,64,,,SE,8.1,,,,,140,2013-11-27 19:30:00
6:30 AM,61,53,69,,,SE,11.5,,,,,130,2013-11-27 20:00:00
8:30 AM,64,52,56,,,SSE,10.4,,,,,150,2013-11-27 22:00:00
9:00 AM,64,52,55,,,South,8.1,,,,,180,2013-11-27 22:30:00
9:30 AM,65,52,53,,,South,8.1,,,,,170,2013-11-27 23:00:00
11:30 AM,62,53,64,,,SSE,12.7,,,,,160,2013-11-28 01:00:00
12:00 PM,62,53,65,,,SSE,5.8,,,,Unknown Precipitation,160,2013-11-28 01:30:00
12:30 PM,61,51,62,,,SE,8.1,,,,,130,2013-11-28 02:00:00
2:30 PM,61,55,73,,,South,4.6,,,,,180,2013-11-28 04:00:00
3:00 PM,60,54,76,,,South,5.8,,,,Unknown Precipitation,170,2013-11-28 04:30:00
3:30 PM,59,55,82,,,SSW,4.6,,,,,210,2013-11-28 05:00:00
5:30 PM,61,53,67,,,South,11.5,,,,,170,2013-11-28 07:00:00
6:00 PM,60,51,64,,,South,12.7,,,,,170,2013-11-28 07:30:00
6:30 PM,62,52,62,,,SSE,9.2,,,,,160,2013-11-28 08:00:00
8:30 PM,57,47,60,,,South,10.4,,,,,170,2013-11-28 10:00:00
9:00 PM,56,47,64,,,South,9.2,,,,,170,2013-11-28 10:30:00
9:30 PM,55,47,66,,,South,8.1,,,,,170,2013-11-28 11:00:00
11:30 PM,56,48,66,,,South,6.9,,,,,170,2013-11-28 13:00:00